Location: Arroyo de Fuente Vieja
(40.4902°N, 4.1175°W)
Time: 05:29:10
(UTC+00:00)

NOSS 3-2 (A) - Pass Details

Date: 18 April 2024
Orbit: 704 x 1502 km, 63.4° (Epoch: 12 April)

Event Time Altitude Azimuth Distance (km) Brightness Sun altitude
Rises 22:57:33 0° 326° (NNW) 3,949 7.7 -35.2°
Reaches altitude 10° 23:00:05 10° 329° (NNW) 3,093 6.9 -35.4°
Enters shadow 23:07:20 71° 34° (NE) 1,393 4.2 -35.9°
